,

(GMT )
Bow Valley

Weather History for CWXA - September, 2013

Change the Weather History Date:

Saturday, September 14, 2013

  Actual Average Record
Temperature  
Mean Temperature 60 °F -  
Max Temperature 75 °F - - ()
Min Temperature 45 °F - - ()
Degree Days  
Heating Degree Days 5    
Growing Degree Days 10 (Base 50)    
Moisture  
Dew Point 51 °F    
Average Humidity 74    
Maximum Humidity 95    
Minimum Humidity 42    
Precipitation  
Precipitation 0.00 in - - ()
Sea Level Pressure  
Sea Level Pressure 30.05 in    
Wind  
Wind Speed 1 mph ()    
Max Wind Speed 6 mph    
Max Gust Speed -    
T = Trace of Precipitation, MM = Missing Value Source: Averaged Metar Reports

Daily Weather History Graph

Daily Weather History Graph

Search for Another Location

Airport or City:

Trip Planner

Search our weather history database for the weather conditions in past years. The results will help you decide how hot, cold, wet, or windy it might be!

Date:

Astronomy

Sep. 14, 2013 Rise Set
Actual Time 7:14 AM MDT 7:55 PM MDT
Civil Twilight 6:41 AM MDT 8:29 PM MDT
Nautical Twilight 6:01 AM MDT 9:08 PM MDT
Astronomical Twilight 5:18 AM MDT 9:50 PM MDT
Moon 5:05 PM MDT (9/14) 1:23 AM MDT (9/14)
Length of Visible Light 13h 48m
Length of Day
12h 41m
Waxing Gibbous, 73% of the Moon is Illuminated
Sep 14
Waxing Gibbous
Sep 19
Full
Sep 26
Last Quarter
Oct 4
New
Oct 11
First Quarter

Hourly Weather History & Observations

Time (MDT) Temp. Dew Point Humidity Pressure Visibility Wind Dir Wind Speed Gust Speed Precip Events Conditions
12:00 AM 57 °F 52 °F 78% 29.99 in - SSW 1.2 mph - -  
12:00 AM 56.8 °F 52.0 °F 84% 29.99 in - SSW 1.2 mph - N/A   Unknown
1:00 AM 54.3 °F 50.4 °F 86% 29.99 in - Calm Calm - N/A   Unknown
2:00 AM 54.0 °F 50.7 °F 89% 30.00 in - Calm Calm - N/A   Unknown
3:00 AM 50.5 °F 47.7 °F 90% 30.01 in - WSW 1.2 mph - N/A   Unknown
4:00 AM 50.2 °F 48.2 °F 93% 30.02 in - Calm Calm - N/A   Unknown
5:00 AM 47.3 °F 45.0 °F 92% 30.05 in - Calm Calm - N/A   Unknown
6:00 AM 46 °F 45 °F 94% 30.08 in - WSW 1.2 mph - -  
6:00 AM 46.4 °F 44.8 °F 94% 30.08 in - WSW 1.2 mph - N/A   Unknown
7:00 AM 45.1 °F 43.3 °F 93% 30.12 in - SW 1.2 mph - N/A   Unknown
8:00 AM 46.6 °F 45.3 °F 95% 30.14 in - Calm Calm - N/A   Unknown
9:00 AM 53.4 °F 51.8 °F 94% 30.13 in - ENE 1.2 mph - N/A   Unknown
10:00 AM 59.9 °F 49.8 °F 69% 30.11 in - East 1.2 mph - N/A   Unknown
11:00 AM 64.0 °F 50.2 °F 61% 30.10 in - NE 2.3 mph - N/A   Unknown
12:00 PM 67 °F 52 °F 49% 30.09 in - NE 3.5 mph - -  
12:00 PM 67.3 °F 52.3 °F 59% 30.09 in - NE 3.5 mph - N/A   Unknown
1:00 PM 69.6 °F 54.0 °F 57% 30.06 in - NNE 4.6 mph - N/A   Unknown
2:00 PM 72.7 °F 54.1 °F 52% 30.04 in - North 4.6 mph - N/A   Unknown
3:00 PM 74.5 °F 53.6 °F 48% 30.02 in - ENE 4.6 mph - N/A   Unknown
4:00 PM 75.7 °F 55.4 °F 49% 30.01 in - NE 5.8 mph - N/A   Unknown
5:00 PM 74.7 °F 53.8 °F 48% - - East 5.8 mph - N/A   Unknown
6:00 PM 74 °F 56 °F 42% 30.02 in - East 2.3 mph - -  
6:00 PM 73.8 °F 55.6 °F 53% 30.02 in - East 2.3 mph - N/A   Unknown
7:00 PM 70.7 °F 55.4 °F 58% 30.02 in - North 2.3 mph - N/A   Unknown
8:00 PM 64.6 °F 55.2 °F 72% 30.02 in - North 1.2 mph - N/A   Unknown
9:00 PM 57.7 °F 52.9 °F 84% 30.03 in - Calm Calm - N/A   Unknown
10:00 PM 53.1 °F 50.4 °F 91% 30.04 in - SW 1.2 mph - N/A   Unknown
11:00 PM 50.9 °F 48.7 °F 92% 30.04 in - SSW 1.2 mph - N/A   Unknown